Location: Moscow
(55.7500°N, 37.5830°E)
Time: 07:27:13
(UTC+03:00)

A-11 Canister half - Pass Details

Date: 30 November 2021
Orbit: 1524 x 1684 km, 47.3° (Epoch: 17 January)

Event Time Altitude Azimuth Distance (km) Brightness Sun altitude
Exits shadow 01:48:43 14° 103° (ESE) 3,591 11.0 -52.0°
Drops below altitude 10° 01:50:40 10° 93° (E) 3,912 11.3 -51.8°
Sets 01:55:02 0° 77° (ENE) 4,879 12.1 -51.4°
